Wind_Speed
45 45 44 42 41 39 38 36 34 32 31 30 29 28 27 27 26 26 25 25 25 25 26 26 26 27 27 27 28 28 29 28 28 28 28 27 27 28 28 27 27 27 28
47 46 46 45 44 42 40 39 37 35 33 32 31 30 29 28 28 28 27 27 27 27 27 27 28 29 29 29 30 30 30 30 29 29 29 28 29 29 28 28 27 28 29
47 47 47 47 46 45 43 42 41 38 36 35 33 33 32 31 30 30 30 29 29 29 29 29 30 30 30 31 31 31 31 31 31 30 29 30 30 30 29 29 28 29 30
49 48 48 48 47 47 46 44 43 41 39 37 36 35 34 33 33 32 32 32 32 31 31 32 32 32 32 32 32 33 33 32 32 31 31 31 31 30 30 30 30 30 32
49 48 48 48 49 49 49 47 45 43 42 40 39 38 36 35 35 35 35 34 34 34 34 34 34 34 34 34 34 35 34 34 34 33 33 33 32 31 31 31 32 33 34
49 49 49 49 50 50 50 49 47 46 45 43 42 41 40 39 38 37 37 36 36 36 36 36 36 36 37 37 37 36 35 35 35 34 34 34 33 33 33 33 34 35 36
49 50 50 51 50 50 50 50 49 48 47 46 45 43 43 42 40 40 40 40 39 39 38 38 38 38 39 39 39 38 37 37 36 36 35 35 35 35 35 35 35 36 37
50 50 50 50 50 51 51 52 51 50 49 48 47 46 45 44 43 42 42 41 41 41 40 40 41 41 40 40 40 39 39 39 38 38 37 36 36 36 36 37 37 38 39
51 50 50 50 50 50 50 51 51 50 50 50 49 48 47 46 45 44 43 43 43 42 42 41 42 42 42 42 42 41 40 40 39 39 38 37 37 37 38 38 38 39 40
52 51 51 51 50 49 49 49 49 49 50 50 49 49 48 48 47 47 45 45 45 45 44 43 43 43 43 43 42 41 40 40 40 39 39 38 39 39 39 40 40 41 41
54 53 52 51 51 50 50 50 49 49 49 50 50 49 50 50 50 49 47 46 46 45 44 44 44 44 44 44 43 43 42 41 41 40 40 40 41 41 41 41 42 43 43
54 53 51 50 50 49 49 50 50 50 51 51 52 51 51 51 49 49 48 47 46 45 45 45 45 45 45 44 45 45 43 43 42 42 42 42 43 43 43 43 43 44 44
53 51 50 50 50 50 49 50 51 50 51 52 52 51 51 51 50 50 49 48 48 47 47 46 46 46 45 45 46 46 45 45 45 45 45 44 44 44 44 44 45 45 45
50 49 48 48 49 49 49 50 50 51 51 52 51 50 50 50 49 49 50 50 49 48 47 47 47 46 45 46 45 46 46 46 46 46 45 46 46 46 46 46 45 45 45
48 46 45 45 45 47 47 47 47 50 51 51 52 51 50 48 47 48 50 50 49 49 48 47 47 47 47 47 46 47 47 47 47 46 46 47 47 47 47 47 46 46 46
47 45 44 44 44 44 44 46 47 49 49 49 50 50 50 49 50 50 50 51 51 51 49 48 49 48 47 48 48 48 48 49 49 49 48 48 47 47 47 47 47 46 46
43 43 43 43 44 44 45 46 47 48 47 47 48 50 51 51 51 51 52 53 52 52 52 51 50 49 49 50 50 50 50 50 51 51 50 49 48 48 48 48 48 47 47
38 40 40 40 41 42 44 45 46 46 46 47 48 49 51 51 52 53 55 55 54 53 53 52 52 52 51 51 51 52 51 52 53 52 52 51 50 50 49 49 48 47 47
33 33 34 35 37 39 41 42 43 45 46 47 48 50 51 52 53 54 55 55 55 54 55 54 53 53 52 52 53 53 53 54 54 54 53 52 51 51 49 48 47 47 47
28 29 31 33 35 36 39 41 43 45 45 46 48 51 52 53 54 55 56 56 56 56 57 56 55 54 55 55 55 55 55 55 55 54 54 53 52 51 50 48 48 47 46
26 27 29 31 34 36 38 40 42 44 45 47 50 52 53 53 55 56 57 58 58 59 59 59 58 57 57 58 58 58 57 55 55 55 54 54 52 50 49 48 47 46 44
25 28 30 32 35 37 39 42 44 46 47 49 51 53 54 56 58 58 60 60 61 60 60 60 60 60 59 59 60 59 57 56 55 55 54 53 52 50 49 48 46 44 42
26 28 30 33 35 38 41 43 45 47 49 51 54 56 57 59 61 61 62 62 63 63 63 62 62 61 60 60 60 60 59 59 57 56 55 54 53 51 49 47 45 43 42
28 30 33 35 38 41 44 46 48 50 52 55 57 59 61 62 63 64 64 65 65 65 66 65 64 63 63 64 63 61 61 61 60 58 56 54 53 51 50 48 45 43 41
34 36 37 40 42 45 48 50 53 55 57 60 62 64 65 66 67 68 68 69 68 69 69 68 67 67 67 66 64 63 62 61 59 58 57 54 52 50 48 45 44 42 40
39 42 44 46 48 50 53 56 58 60 62 63 64 65 66 67 68 69 70 70 69 69 69 69 69 68 67 66 65 63 61 60 58 56 55 53 51 48 46 44 42 41 40
Wind_Direction
240 241 241 242 243 244 245 247 248 249 249 251 252 254 255 256 259 262 265 268 271 274 276 278 280 282 284 287 290 292 294 296 298 300 302 303 304 306 308 309 309 311 313
239 240 241 241 242 244 245 247 248 248 249 251 252 254 255 256 259 261 264 266 270 273 275 277 279 281 283 286 289 290 292 293 295 297 299 301 302 304 305 305 306 308 311
239 240 241 241 242 243 244 246 248 249 249 250 252 253 255 256 258 261 263 266 268 271 273 276 277 279 282 286 288 289 290 291 293 294 296 299 300 300 301 301 303 306 308
238 239 240 241 242 243 244 245 247 248 249 250 252 253 254 256 257 260 263 265 267 269 272 274 276 278 282 285 286 287 288 289 290 292 294 296 297 296 297 298 300 303 305
237 238 239 240 242 243 244 245 246 248 250 251 252 253 254 255 257 259 262 264 267 269 271 273 275 277 280 283 284 285 287 287 289 290 292 293 294 294 295 296 297 300 303
236 238 239 240 242 243 243 245 247 248 250 251 252 253 255 256 257 259 262 264 267 269 270 272 273 275 278 281 282 283 284 285 287 288 290 291 291 292 293 294 296 298 301
236 237 239 240 242 244 245 245 247 248 250 251 253 254 255 256 258 260 262 264 266 268 270 271 272 275 277 279 281 281 282 283 284 287 288 288 289 291 292 293 295 297 300
236 238 239 241 243 244 245 246 247 249 250 252 253 255 256 257 259 261 263 265 266 268 270 272 272 273 276 279 280 280 281 281 282 285 287 287 288 289 290 292 294 297 299
235 238 240 241 242 243 245 246 247 249 251 253 254 256 258 259 260 262 264 265 266 267 269 271 272 273 275 277 279 278 279 280 281 283 285 286 286 288 290 291 293 295 298
235 237 238 239 239 241 244 245 248 251 252 253 255 256 258 260 262 262 263 265 266 267 268 270 272 274 275 277 277 277 279 280 281 281 283 284 285 286 287 289 291 294 296
234 235 237 237 239 241 244 246 249 253 254 255 255 257 259 261 262 264 264 264 265 266 267 269 271 272 275 276 275 276 278 279 280 280 282 284 285 285 287 289 291 294 295
233 236 237 237 238 241 244 245 248 252 254 256 257 258 259 260 262 264 264 264 264 265 266 268 270 272 274 275 276 277 278 279 279 280 282 283 283 284 286 288 290 293 294
234 236 237 238 239 241 243 244 248 251 253 255 257 258 259 261 263 264 264 265 264 265 266 268 270 273 275 275 276 276 276 278 279 279 281 282 283 283 285 287 289 291 294
233 236 237 238 239 241 244 245 248 251 254 255 256 259 260 261 263 265 265 266 266 266 267 270 271 273 274 274 274 275 276 278 280 280 280 281 282 282 284 287 289 292 294
231 236 238 239 240 241 244 246 247 250 253 257 259 260 261 261 263 264 265 266 267 268 270 270 271 273 274 274 274 275 276 277 279 280 280 281 281 282 284 287 289 291 294
233 237 240 240 241 242 244 246 249 251 255 258 258 259 261 262 263 265 266 267 268 269 271 272 272 272 273 273 274 275 276 277 278 279 279 280 281 283 285 286 289 291 293
233 236 240 242 243 244 246 248 251 253 255 257 259 261 262 262 263 265 266 267 268 270 271 272 271 271 272 274 274 274 276 276 277 277 278 280 281 282 284 285 288 289 291
235 238 240 242 245 246 248 250 252 253 255 258 259 261 263 264 265 267 268 269 270 270 270 271 271 272 273 274 273 274 275 275 277 277 277 279 279 281 282 285 286 288 289
236 239 241 244 246 248 249 251 254 256 258 260 261 263 264 266 266 267 268 269 270 269 270 271 272 272 272 272 273 273 274 275 276 276 276 277 278 280 281 282 284 286 288
241 244 247 248 248 250 253 255 258 259 261 262 264 265 267 267 268 269 269 270 270 270 271 271 271 271 271 271 272 272 273 274 274 275 275 276 277 277 279 280 282 284 286
248 250 253 253 253 256 257 259 261 262 263 264 266 267 268 269 270 269 270 270 270 271 271 271 271 271 272 272 272 271 271 271 272 273 274 274 274 275 276 278 280 282 283
253 255 257 259 261 262 263 263 264 264 265 266 268 268 269 269 269 269 270 270 270 270 270 270 270 271 271 271 271 271 270 270 271 272 272 272 272 273 274 276 277 279 280
263 264 265 266 267 267 268 267 267 268 268 269 270 271 271 270 270 270 270 270 269 269 270 269 268 269 268 268 269 269 268 269 269 269 270 270 270 271 272 274 276 277 278
270 270 271 271 272 272 272 271 271 272 273 272 272 273 272 272 272 270 270 270 268 268 268 268 268 268 267 267 268 267 267 267 267 267 267 268 269 270 271 272 274 275 275
276 276 275 275 275 275 275 275 275 275 275 275 275 275 274 273 271 269 268 268 268 267 267 267 267 267 267 267 266 266 266 266 267 267 267 267 268 269 269 270 271 271 272
280 280 279 278 278 278 278 278 278 278 278 278 277 276 274 272 271 270 270 268 267 267 267 267 267 268 267 266 264 264 265 265 264 264 265 265 265 265 266 266 267 268 271
Height
5805 5809 5813 5816 5819 5822 5825 5828 5830 5833 5835 5837 5839 5840 5842 5843 5844 5845 5845 5846 5846 5846 5846 5846 5846 5845 5844 5843 5842 5841 5840 5839 5837 5836 5834 5832 5830 5828 5826 5823 5821 5819 5816
5797 5801 5805 5808 5812 5815 5818 5821 5824 5826 5829 5831 5833 5834 5836 5837 5838 5839 5840 5840 5841 5841 5841 5841 5840 5839 5839 5838 5837 5836 5835 5833 5832 5830 5829 5827 5825 5823 5821 5818 5816 5814 5811
5788 5792 5796 5800 5804 5807 5810 5813 5816 5819 5822 5824 5826 5828 5830 5831 5832 5833 5834 5834 5835 5835 5835 5835 5834 5834 5833 5832 5831 5830 5829 5827 5826 5824 5823 5821 5820 5817 5815 5813 5811 5809 5806
5780 5784 5788 5792 5796 5799 5802 5805 5809 5812 5814 5817 5819 5821 5823 5824 5825 5826 5827 5828 5828 5829 5829 5828 5828 5827 5827 5826 5825 5824 5823 5821 5820 5818 5817 5815 5814 5812 5810 5808 5806 5803 5800
5771 5775 5779 5783 5786 5790 5793 5797 5800 5804 5807 5809 5811 5813 5815 5817 5818 5819 5820 5821 5822 5822 5822 5822 5821 5821 5820 5819 5818 5817 5816 5815 5813 5812 5811 5809 5807 5806 5804 5802 5800 5797 5795
5762 5766 5770 5774 5777 5781 5785 5789 5792 5795 5798 5800 5803 5805 5807 5809 5810 5812 5813 5813 5814 5814 5814 5814 5814 5813 5813 5812 5811 5810 5809 5808 5807 5805 5804 5802 5801 5799 5797 5795 5793 5791 5788
5753 5757 5761 5765 5769 5772 5777 5780 5783 5786 5789 5792 5794 5797 5799 5801 5802 5804 5805 5805 5806 5806 5806 5806 5806 5805 5805 5804 5803 5802 5801 5800 5799 5798 5797 5795 5793 5792 5790 5788 5786 5784 5781
5744 5748 5752 5756 5760 5764 5767 5770 5774 5777 5780 5783 5785 5787 5790 5793 5794 5795 5796 5797 5797 5798 5798 5797 5797 5797 5796 5796 5795 5794 5793 5792 5791 5790 5789 5787 5786 5784 5782 5781 5779 5777 5774
5734 5739 5742 5747 5751 5754 5758 5761 5765 5768 5771 5773 5776 5778 5781 5783 5785 5786 5787 5787 5788 5788 5788 5788 5788 5788 5788 5787 5786 5785 5784 5784 5783 5782 5780 5779 5777 5776 5775 5773 5771 5769 5766
5723 5728 5732 5737 5741 5745 5749 5752 5755 5759 5761 5764 5766 5769 5771 5773 5774 5776 5777 5778 5778 5778 5779 5779 5779 5778 5778 5778 5777 5776 5776 5775 5774 5773 5772 5771 5769 5768 5766 5765 5763 5760 5758
5713 5718 5723 5727 5731 5736 5740 5743 5746 5749 5752 5754 5756 5758 5760 5762 5763 5764 5766 5767 5767 5768 5768 5769 5769 5769 5768 5768 5767 5767 5766 5765 5765 5764 5763 5762 5760 5759 5758 5756 5754 5752 5750
5702 5708 5713 5717 5722 5726 5730 5733 5736 5739 5742 5744 5746 5748 5749 5751 5753 5754 5755 5756 5757 5758 5758 5758 5759 5759 5758 5758 5757 5757 5757 5756 5755 5754 5753 5752 5751 5749 5748 5747 5745 5743 5741
5693 5699 5704 5708 5713 5717 5720 5724 5727 5729 5732 5734 5736 5738 5739 5741 5742 5743 5744 5744 5745 5747 5748 5748 5748 5748 5748 5747 5747 5746 5746 5745 5744 5743 5742 5742 5741 5739 5738 5737 5735 5733 5731
5684 5689 5694 5699 5703 5707 5711 5714 5717 5720 5722 5724 5726 5727 5729 5730 5731 5732 5732 5733 5734 5735 5736 5737 5737 5737 5736 5736 5735 5735 5735 5734 5733 5732 5731 5731 5730 5729 5728 5726 5725 5723 5722
5675 5680 5686 5690 5694 5698 5701 5704 5707 5710 5712 5714 5716 5717 5718 5719 5720 5721 5721 5722 5722 5723 5725 5726 5726 5725 5724 5724 5724 5723 5723 5722 5721 5721 5720 5719 5719 5718 5717 5716 5714 5713 5711
5667 5672 5678 5682 5685 5689 5692 5695 5698 5700 5702 5703 5705 5706 5707 5708 5709 5709 5710 5710 5710 5710 5711 5713 5713 5713 5712 5712 5711 5711 5710 5710 5710 5709 5709 5708 5707 5707 5706 5705 5704 5702 5701
5660 5665 5669 5673 5677 5680 5683 5685 5688 5690 5691 5693 5694 5695 5696 5697 5697 5698 5698 5698 5697 5697 5697 5699 5699 5699 5699 5699 5698 5698 5698 5698 5697 5697 5697 5697 5696 5695 5695 5694 5693 5692 5690
5654 5658 5661 5665 5668 5671 5673 5676 5678 5679 5681 5682 5683 5683 5684 5684 5685 5685 5685 5684 5684 5684 5684 5685 5685 5685 5685 5685 5685 5685 5685 5685 5684 5684 5684 5684 5684 5683 5683 5682 5682 5680 5679
5648 5652 5655 5657 5660 5662 5664 5666 5668 5669 5669 5670 5671 5671 5671 5671 5671 5671 5671 5671 5670 5670 5670 5670 5671 5671 5671 5671 5671 5671 5671 5671 5671 5671 5671 5671 5671 5671 5671 5670 5670 5669 5668
5643 5645 5648 5650 5651 5653 5655 5656 5657 5658 5658 5658 5658 5658 5658 5658 5657 5657 5657 5656 5656 5655 5655 5655 5656 5656 5657 5657 5657 5657 5657 5657 5657 5657 5657 5658 5658 5658 5659 5659 5658 5658 5657
5637 5639 5640 5642 5643 5644 5644 5645 5645 5646 5646 5646 5645 5644 5644 5643 5642 5642 5641 5641 5640 5640 5640 5640 5640 5640 5641 5641 5642 5642 5642 5642 5642 5643 5643 5644 5645 5646 5646 5646 5646 5646 5645
5631 5632 5633 5633 5633 5633 5633 5633 5633 5633 5632 5632 5631 5630 5629 5628 5626 5625 5624 5624 5624 5623 5623 5623 5623 5624 5625 5625 5625 5625 5625 5626 5628 5629 5629 5630 5631 5632 5633 5633 5633 5634 5634
5624 5624 5624 5623 5623 5622 5621 5621 5620 5619 5618 5617 5615 5614 5612 5610 5608 5607 5606 5606 5605 5605 5605 5605 5605 5606 5606 5607 5607 5608 5609 5610 5612 5613 5614 5616 5617 5618 5619 5620 5621 5621 5622
5616 5615 5614 5613 5612 5610 5608 5607 5606 5604 5602 5600 5598 5596 5594 5591 5589 5587 5586 5586 5586 5585 5585 5585 5586 5587 5587 5588 5589 5590 5591 5593 5595 5597 5599 5601 5602 5604 5605 5607 5608 5609 5610
5605 5604 5603 5601 5599 5597 5594 5591 5589 5587 5585 5582 5579 5576 5572 5570 5568 5566 5565 5566 5566 5565 5564 5564 5565 5566 5567 5568 5570 5572 5573 5576 5578 5581 5583 5585 5587 5589 5591 5593 5595 5597 5598
5594 5592 5590 5587 5585 5582 5578 5575 5571 5568 5565 5562 5558 5554 5550 5547 5545 5543 5542 5543 5543 5544 5543 5543 5544 5545 5546 5548 5550 5553 5555 5558 5561 5564 5567 5570 5572 5575 5578 5580 5582 5584 5586